STARLINK-1475 (45739 NORAD) Tracking and Keplerian Element Data

This shows tracking and keplerian element data for the satellite.

Feedback or suggestion? Click here.




ElementValue
Catalog45739
NameSTARLINK-1475
Epoch Orbit446
Epoch Day186.50001157
Epoch Year2020
RAAN193.4217
Inclination53.0004
Eccentricity8.84E-05
Argument of Perigee92.1537
Mean Anonmoly131.5431
Mean Motion15.62714131
Decay Rate0.00044929
L11 45739U 20038K 20186.50001157 .00044929 00000-0 49453-3 0 9993
L22 45739 53.0004 193.4217 0000884 92.1537 131.5431 15.62714131 4469

Live tracking and technical data element details for STARLINK-1475 (NORAD 45739). STARLINK-1475 can be tracked NOW for your location showing map with azimuth and elevation plus other details from your city location.

Track the satellite on the map from your city or location and see movement details for azimuth, elevation, latitude, longitude, range, height, and movement on the map or in text.







IsCatalogInMostPopularTable: catalog: 45739, numindb: 4
Update: records affected: 1



GetName: 45739 STARLINK-1475

Hit Count: updated at: Sun, 05 Jul 2020 17:09:56 GMT